Погода в Кононове

Россия / Владимирская область     55°14′24″N   41°46′57″E
темп.,
°C
ветер,
м/с
пор.,
м/с
влажн.,
%
обл.,
%
осадки,
мм/ч
давл.,
гПа
погр.,
м
14 апреля, ср
ср1400:00+10ююв396695 0.0 1026147
03:00+9юв387249 0.0 1025124
06:00+8ююв3877100 0.0 1024143
09:00+13ююв4756100 0.0 1024302
12:00+18ююв573759 0.0 10221019
15:00+19ююв5730100 0.0 10211600
18:00+16юв3446100 0.0 102068
21:00+12ююв3459100 0.0 102049
15 апреля, чт
чт1500:00+10ююв3365100 0.0 101927
03:00+8ююв22727 0.0 101919
06:00+7юв227436 0.0 101914
09:00+13юв235533 0.0 1018289
12:00+18вюв234067 0.0 1018927
15:00+19в2234100 0.0 10171670
18:00+17всв3346100 0.0 101753
21:00+12всв3664100 0.0 101887
16 апреля, пт
пт1600:00+10св51082100 0.0 1019204
03:00+8св51195100 0.0 1020327
06:00+7св61293100 0.0 1021416
09:00+9всв71076100 0.0 1022526
12:00+14всв786051 0.0 1022929
15:00+14всв786167 0.0 10231146
18:00+11всв6972100 0.0 10241012
21:00+10всв6127796 0.0 1025716
17 апреля, сб
сб1700:00+7всв5128488 0.0 1025496
03:00+5всв5127568 0.0 1026385
06:00+4св5137244 0.0 1027403
09:00+9всв710545 0.0 1027676
12:00+12всв79425 0.0 10261131
15:00+13всв79335 0.0 10261420
18:00+11всв59445 0.0 1027843
21:00+6всв412610 0.0 1027268
18 апреля, вс
вс1800:00+5всв412690 0.0 1028247
03:00+3всв410754 0.0 1029194
06:00+3св39770 0.0 1029185
09:00+9всв58542 0.0 1029650
12:00+13всв67415 0.0 10281631
15:00+14всв67375 0.0 10281969
18:00+12всв58497 0.0 1028604
21:00+7всв3466100 0.0 102949